This is the latest recevied weather packets stored in our database for station/object WA6OOO. If no packets are shown the sender has not sent any weather packets the latest 10 day(s).
| Time | Temp. | Humidity | Pressure | Rain* | Wind** | Luminosity | Snow |
|---|---|---|---|---|---|---|---|
| 1777944094 | 16.11° C | 73% | 1017.7 hPa | 0 mm | - | 53 W/m² | - |
| 1777943790 | 16.67° C | 70% | 1018 hPa | 0 mm | - | 92 W/m² | - |
| 1777943488 | 16.67° C | 68% | 1018 hPa | 0 mm | - | 112 W/m² | - |
| 1777943187 | 16.67° C | 68% | 1017.9 hPa | 0 mm | - | 167 W/m² | - |
| 1777942885 | 16.67° C | 66% | 1018 hPa | 0 mm | - | 150 W/m² | - |
| 1777942580 | 16.67° C | 67% | 1017.9 hPa | 0 mm | - | 147 W/m² | - |
| 1777942278 | 16.67° C | 67% | 1018 hPa | 0 mm | - | 154 W/m² | - |
| 1777941975 | 16.67° C | 66% | 1018.1 hPa | 0 mm | - | 125 W/m² | - |
| 1777941672 | 16.67° C | 67% | 1018 hPa | 0 mm | - | 120 W/m² | - |
| 1777941369 | 16.67° C | 67% | 1018 hPa | 0 mm | - | 122 W/m² | - |
| 1777941066 | 16.67° C | 67% | 1018 hPa | 0 mm | - | 142 W/m² | - |
| 1777940761 | 17.22° C | 66% | 1017.9 hPa | 0 mm | - | 175 W/m² | - |
| 1777940461 | 17.78° C | 64% | 1017.9 hPa | 0 mm | - | 216 W/m² | - |
| 1777940157 | 17.78° C | 65% | 1017.8 hPa | 0 mm | - | 276 W/m² | - |
| 1777939855 | 17.78° C | 65% | 1017.6 hPa | 0 mm | - | 317 W/m² | - |
| 1777939552 | 17.78° C | 64% | 1017.8 hPa | 0 mm | - | 487 W/m² | - |
| 1777939249 | 17.22° C | 68% | 1017.9 hPa | 0 mm | - | 264 W/m² | - |
| 1777938946 | 17.22° C | 68% | 1017.6 hPa | 0 mm | - | 240 W/m² | - |
| 1777938643 | 17.78° C | 66% | 1017.8 hPa | 0 mm | - | 215 W/m² | - |
| 1777938340 | 17.22° C | 67% | 1017.8 hPa | 0 mm | - | 308 W/m² | - |
| 1777938037 | 17.22° C | 67% | 1017.7 hPa | 0 mm | - | 286 W/m² | - |
| 1777937732 | 17.22° C | 68% | 1017.8 hPa | 0 mm | - | 259 W/m² | - |
| 1777937429 | 17.22° C | 67% | 1017.6 hPa | 0 mm | - | 229 W/m² | - |
| 1777937126 | 17.78° C | 66% | 1017.6 hPa | 0 mm | - | 226 W/m² | - |
| 1777936824 | 17.78° C | 67% | 1017.7 hPa | 0 mm | - | 573 W/m² | - |
* Rain latest hour (hover to see other rain measurements)
** Current wind speed in m/s (hover to see current wind gust speed)